period_start,C,m1,H,J0,J1,J2,J3,J4,J5,JA,JB,JC,JD,JJ,JK,JN,#
2018-09-15 00:01:49,-0.00,1.28,0.00,18.24,21.94,25.03,14.26,47.49,1020.04,2047.99,2829.01,2640.12,3041.73,599.90,607.77,47.47,0000 0000 0000 0000 000000
2018-09-15 00:06:50,0.01,1.28,0.00,18.24,21.92,25.04,14.22,47.31,1020.04,2047.99,2829.00,2640.07,3041.61,600.46,608.22,47.52,0000 0000 0000 0000 000000
2018-09-15 00:11:52,0.01,1.28,0.00,18.24,21.92,25.07,14.25,47.43,1020.01,2048.00,2828.99,2640.01,3041.14,599.82,607.64,47.57,0000 0000 0000 0000 000000
2018-09-15 00:16:54,0.00,1.28,0.00,18.26,21.92,24.99,14.19,47.49,1019.91,2048.02,2828.81,2640.00,3041.05,599.91,607.58,47.63,0000 0000 0000 0000 000000
2018-09-15 00:21:55,0.09,1.28,0.00,18.27,21.92,25.01,14.23,47.49,1019.77,2048.00,2827.27,2639.20,3040.37,600.29,608.10,47.68,0000 0000 0000 0000 000000
2018-09-15 00:26:56,0.20,1.29,0.00,18.26,21.92,25.01,14.19,47.45,1019.61,2048.01,2823.77,2637.05,3037.97,599.65,607.24,47.73,0000 0000 0000 0000 000000
2018-09-15 00:31:58,0.12,1.30,0.00,18.24,21.92,24.99,14.20,47.47,1019.57,2048.04,2820.73,2635.33,3036.05,599.93,607.48,47.78,0000 0000 0000 0000 000000
2018-09-15 00:36:59,0.05,1.31,0.00,18.24,21.92,25.05,14.22,47.42,1019.55,2048.04,2819.42,2634.59,3035.08,600.09,607.45,47.83,0000 0000 0000 0000 000000
2018-09-15 00:42:01,0.02,1.31,0.00,18.25,21.92,25.05,14.25,47.43,1019.55,2048.05,2819.04,2634.08,3035.00,599.91,607.34,47.88,0000 0000 0000 0000 000000
2018-09-15 00:47:02,-0.00,1.31,0.00,18.24,21.92,25.02,14.21,47.37,1019.55,2048.04,2819.04,2634.03,3035.00,600.18,607.75,47.93,0000 0000 0000 0000 000000
2018-09-15 00:52:03,0.01,1.31,0.00,18.24,21.92,25.06,14.25,47.32,1019.55,2048.08,2818.99,2634.00,3034.95,600.01,607.56,47.98,0000 0000 0000 0000 000000
2018-09-15 00:57:05,0.05,1.31,0.00,18.24,21.92,25.06,14.29,47.34,1019.51,2048.31,2818.46,2633.91,3034.36,600.22,607.68,48.03,0000 0000 0000 0000 000000
2018-09-15 01:02:06,0.05,1.31,0.00,18.22,21.92,25.07,14.31,47.36,1019.46,2048.26,2817.46,2632.99,3033.75,600.26,607.90,48.08,0000 0000 0000 0000 000000
2018-09-15 01:07:07,0.17,1.32,0.00,18.22,21.92,25.09,14.27,47.38,1019.31,2048.44,2814.62,2631.35,3031.89,599.99,607.47,48.13,0000 0000 0000 0000 000000
2018-09-15 01:12:09,0.10,1.33,0.00,18.22,21.92,25.09,14.21,47.40,1019.18,2048.51,2812.55,2629.90,3030.33,600.08,607.32,48.18,0000 0000 0000 0000 000000
2018-09-15 01:17:10,0.07,1.33,0.00,18.20,21.90,25.08,14.20,47.35,1019.08,2048.60,2811.59,2629.05,3029.64,599.84,607.16,48.23,0000 0000 0000 0000 000000
2018-09-15 01:22:12,0.03,1.33,0.00,18.19,21.90,25.08,14.19,47.38,1019.07,2048.77,2811.00,2628.95,3029.03,599.91,607.17,48.28,0000 0000 0000 0000 000000
2018-09-15 01:27:13,0.05,1.33,0.00,18.19,21.89,25.05,14.24,47.52,1019.07,2048.92,2810.29,2628.39,3028.99,600.14,607.48,48.33,0000 0000 0000 0000 000000
2018-09-15 01:32:14,0.01,1.34,0.00,18.19,21.89,25.03,14.23,47.41,1019.06,2048.96,2809.99,2628.01,3028.67,600.11,607.47,48.38,0000 0000 0000 0000 000000
2018-09-15 01:37:15,0.02,1.34,0.00,18.18,21.89,25.03,14.20,47.36,1019.06,2048.97,2809.42,2627.97,3028.07,599.87,607.23,48.43,0000 0000 0000 0000 000000
2018-09-15 01:42:16,0.02,1.34,0.00,18.18,21.89,25.04,14.20,47.32,1019.06,2048.98,2809.01,2627.44,3028.00,599.66,606.96,48.48,0000 0000 0000 0000 000000
2018-09-15 01:47:18,0.04,1.34,0.00,18.19,21.87,25.02,14.16,47.26,1019.05,2048.98,2808.20,2627.01,3027.42,599.99,607.39,48.53,0000 0000 0000 0000 000000
2018-09-15 01:52:19,0.01,1.34,0.00,18.21,21.87,25.00,14.13,47.22,1018.95,2048.99,2807.89,2626.77,3027.02,600.04,607.26,48.59,0000 0000 0000 0000 000000
2018-09-15 01:57:20,0.02,1.34,0.00,18.24,21.87,25.01,14.20,47.43,1018.88,2048.98,2807.63,2626.09,3027.00,599.75,606.88,48.64,0000 0000 0000 0000 000000
2018-09-15 02:02:22,0.01,1.34,0.00,18.27,21.87,25.01,14.26,47.43,1018.76,2048.98,2807.34,2626.01,3027.00,600.01,607.08,48.69,0000 0000 0000 0000 000000
2018-09-15 02:07:23,-0.00,1.34,0.00,18.28,21.87,25.00,14.16,47.37,1018.63,2048.99,2807.25,2626.00,3026.99,599.93,606.69,48.74,0000 0000 0000 0000 000000
2018-09-15 02:12:24,0.00,1.34,0.00,18.29,21.87,25.02,14.21,47.41,1018.59,2048.99,2807.13,2626.00,3026.98,599.70,606.37,48.79,0000 0000 0000 0000 000000
2018-09-15 02:17:26,0.00,1.34,0.00,18.32,21.87,25.02,14.21,47.38,1018.60,2048.99,2807.02,2625.96,3026.96,600.27,607.07,48.84,0000 0000 0000 0000 000000
2018-09-15 02:22:27,0.00,1.34,0.00,18.31,21.87,25.00,14.15,47.44,1018.58,2048.99,2807.02,2625.83,3026.93,599.74,606.49,48.89,0000 0000 0000 0000 000000
2018-09-15 02:27:29,0.00,1.34,0.00,18.29,21.87,25.04,14.24,47.43,1018.58,2048.98,2807.03,2625.69,3026.92,600.10,606.92,48.94,0000 0000 0000 0000 000000
2018-09-15 02:32:30,0.01,1.34,0.00,18.26,21.87,25.05,14.18,47.53,1018.57,2048.99,2807.03,2625.37,3026.85,600.01,606.76,48.99,0000 0000 0000 0000 000000
2018-09-15 02:37:31,0.00,1.34,0.00,18.21,21.87,25.10,14.23,47.58,1018.57,2048.99,2807.02,2625.34,3026.92,600.12,607.05,49.04,0000 0000 0000 0000 000000
2018-09-15 02:42:33,0.01,1.35,0.00,18.15,21.86,25.08,14.17,47.50,1018.57,2048.99,2807.03,2625.09,3026.83,599.63,606.75,49.09,0000 0000 0000 0000 000000
2018-09-15 02:47:34,0.00,1.35,0.00,18.09,21.84,25.08,14.24,47.59,1018.56,2048.99,2807.01,2625.04,3026.69,599.83,607.07,49.14,0000 0000 0000 0000 000000
2018-09-15 02:52:35,0.00,1.35,0.00,18.03,21.84,25.08,14.23,47.58,1018.55,2048.99,2807.00,2625.04,3026.77,600.27,607.69,49.19,0000 0000 0000 0000 000000
2018-09-15 02:57:36,0.00,1.35,0.00,17.98,21.82,25.04,14.32,47.58,1018.53,2048.99,2807.00,2625.02,3026.80,600.28,607.67,49.24,0000 0000 0000 0000 000000
2018-09-15 03:02:38,-0.00,1.35,0.00,17.92,21.81,24.96,14.24,47.59,1018.52,2048.99,2807.03,2625.07,3026.95,599.86,607.40,49.29,0000 0000 0000 0000 000000
2018-09-15 03:07:39,-0.01,1.35,0.00,17.87,21.79,24.93,14.22,47.57,1018.48,2049.00,2807.26,2625.15,3026.98,599.85,607.50,49.34,0000 0000 0000 0000 000000
2018-09-15 03:12:40,0.00,1.34,0.00,17.80,21.77,24.83,14.23,47.63,1018.40,2049.02,2807.39,2625.27,3026.99,599.99,607.74,49.39,0000 0000 0000 0000 000000
2018-09-15 03:17:42,-0.01,1.34,0.00,17.73,21.75,24.67,14.23,47.58,1018.23,2049.04,2807.64,2625.47,3026.99,599.82,607.57,49.44,0000 0000 0000 0000 000000
2018-09-15 03:22:43,0.01,1.34,0.00,17.68,21.73,24.62,14.21,47.60,1018.15,2049.09,2807.61,2625.71,3026.99,600.13,608.03,49.49,0000 0000 0000 0000 000000
2018-09-15 03:27:44,0.03,1.34,0.00,17.64,21.69,24.52,14.21,47.57,1018.12,2049.42,2807.63,2625.94,3026.99,599.56,607.53,49.55,0000 0000 0000 0000 000000
2018-09-15 03:32:45,0.02,1.35,0.00,17.58,21.66,24.47,14.26,47.60,1018.11,2049.77,2807.57,2625.95,3027.01,599.63,607.64,49.60,0000 0000 0000 0000 000000
2018-09-15 03:37:47,0.01,1.35,0.00,17.53,21.63,24.43,14.30,47.67,1018.09,2049.96,2807.84,2625.98,3027.08,599.69,607.81,49.65,0000 0000 0000 0000 000000
2018-09-15 03:42:48,-0.01,1.35,0.00,17.48,21.59,24.39,14.23,47.67,1018.09,2049.99,2807.97,2625.99,3027.60,599.37,607.62,49.70,0000 0000 0000 0000 000000
2018-09-15 03:47:49,-0.00,1.35,0.00,17.44,21.55,24.38,14.25,47.58,1018.08,2049.99,2807.99,2625.99,3027.93,599.88,608.24,49.75,0000 0000 0000 0000 000000
2018-09-15 03:52:50,0.00,1.35,0.00,17.41,21.51,24.33,14.17,47.52,1018.08,2049.99,2808.01,2626.01,3027.99,599.76,608.20,49.80,0000 0000 0000 0000 000000
2018-09-15 03:57:51,-0.00,1.35,0.00,17.36,21.48,24.30,14.30,47.77,1018.08,2050.01,2808.05,2626.07,3027.99,600.12,608.59,49.85,0000 0000 0000 0000 000000
2018-09-15 04:02:53,-0.02,1.35,0.00,17.32,21.44,24.22,14.27,47.72,1018.04,2050.10,2808.40,2626.62,3028.04,599.82,608.21,49.90,0000 0000 0000 0000 000000
2018-09-15 04:07:54,0.03,1.35,0.00,17.26,21.40,24.14,14.29,47.73,1017.98,2050.46,2808.74,2626.97,3028.26,600.35,609.05,49.95,0000 0000 0000 0000 000000
2018-09-15 04:12:55,0.03,1.35,0.00,17.23,21.36,24.11,14.30,47.66,1017.85,2050.90,2808.83,2626.98,3028.76,599.78,608.35,50.00,0000 0000 0000 0000 000000
2018-09-15 04:17:56,0.00,1.35,0.00,17.20,21.32,24.12,14.25,47.63,1017.72,2050.99,2808.62,2626.99,3028.88,600.07,608.53,50.05,0000 0000 0000 0000 000000
2018-09-15 04:22:57,-0.00,1.35,0.00,17.18,21.28,24.02,14.26,47.73,1017.65,2050.99,2808.96,2627.00,3028.98,599.55,608.10,50.10,0000 0000 0000 0000 000000
2018-09-15 04:27:58,0.00,1.35,0.00,17.14,21.24,24.01,14.22,47.72,1017.60,2050.99,2808.99,2627.01,3028.99,600.02,608.66,50.15,0000 0000 0000 0000 000000
2018-09-15 04:33:00,0.00,1.35,0.00,17.11,21.20,23.95,14.24,47.80,1017.62,2051.05,2808.99,2627.10,3029.03,599.94,608.75,50.20,0000 0000 0000 0000 000000
2018-09-15 04:38:01,0.03,1.35,0.00,17.05,21.16,23.90,14.26,47.77,1017.62,2051.48,2809.00,2627.54,3029.27,600.19,608.98,50.25,0000 0000 0000 0000 000000
2018-09-15 04:43:02,0.00,1.35,0.00,17.01,21.12,23.91,14.24,47.69,1017.61,2051.86,2809.03,2627.93,3029.86,599.62,608.56,50.30,0000 0000 0000 0000 000000
2018-09-15 04:48:03,-0.01,1.35,0.00,16.95,21.08,23.83,14.35,47.90,1017.61,2051.97,2809.66,2627.99,3029.99,600.22,609.29,50.35,0000 0000 0000 0000 000000
2018-09-15 04:53:04,0.00,1.35,0.00,16.89,21.03,23.70,14.32,47.77,1017.59,2051.99,2809.98,2628.02,3030.04,600.23,609.37,50.40,0000 0000 0000 0000 000000
2018-09-15 04:58:05,-0.03,1.35,0.00,16.82,20.99,23.60,14.29,47.96,1017.59,2052.00,2810.03,2628.32,3030.63,600.15,609.51,50.45,0000 0000 0000 0000 000000
2018-09-15 05:03:06,-0.02,1.35,0.00,16.74,20.94,23.55,14.28,47.88,1017.59,2052.03,2810.56,2628.91,3030.98,599.95,609.47,50.50,0000 0000 0000 0000 000000
2018-09-15 05:08:08,0.02,1.35,0.00,16.67,20.89,23.49,14.29,47.88,1017.59,2052.19,2810.98,2628.99,3031.01,599.83,609.55,50.56,0000 0000 0000 0000 000000
2018-09-15 05:13:09,0.05,1.35,0.00,16.59,20.84,23.42,14.30,47.70,1017.59,2052.81,2810.98,2629.02,3031.25,599.98,609.83,50.61,0000 0000 0000 0000 000000
2018-09-15 05:18:10,-0.02,1.35,0.00,16.53,20.79,23.39,14.21,47.89,1017.59,2052.98,2810.99,2629.39,3031.85,599.00,608.85,50.66,0000 0000 0000 0000 000000
2018-09-15 05:23:11,-0.01,1.35,0.00,16.46,20.73,23.33,14.28,48.00,1017.59,2053.00,2811.01,2629.91,3031.98,599.72,609.87,50.71,0000 0000 0000 0000 000000
2018-09-15 05:28:12,0.00,1.35,0.00,16.38,20.68,23.30,14.31,47.92,1017.59,2053.04,2811.14,2629.99,3032.00,600.02,610.34,50.76,0000 0000 0000 0000 000000
2018-09-15 05:33:14,0.03,1.35,0.00,16.31,20.62,23.23,14.34,47.83,1017.59,2053.58,2811.82,2630.02,3032.38,600.04,610.44,50.81,0000 0000 0000 0000 000000
2018-09-15 05:38:15,-0.01,1.35,0.00,16.24,20.56,23.11,14.36,47.88,1017.59,2053.95,2811.98,2630.52,3032.94,600.27,610.84,50.86,0000 0000 0000 0000 000000
2018-09-15 05:43:17,-0.00,1.35,0.00,16.18,20.50,23.00,14.34,47.82,1017.59,2053.97,2812.02,2630.97,3033.00,600.43,611.20,50.91,0000 0000 0000 0000 000000
2018-09-15 05:48:18,-0.01,1.35,0.00,16.11,20.44,23.00,14.32,47.83,1017.58,2053.99,2812.33,2631.01,3033.17,600.07,610.82,50.96,0000 0000 0000 0000 000000
2018-09-15 05:53:20,-0.03,1.35,0.00,16.05,20.38,22.94,14.32,47.93,1017.58,2054.03,2812.74,2631.26,3033.79,599.86,610.72,51.01,0000 0000 0000 0000 000000
2018-09-15 05:58:21,-0.00,1.35,0.00,16.00,20.32,22.84,14.33,47.82,1017.58,2054.19,2812.99,2631.91,3033.99,600.07,611.15,51.06,0000 0000 0000 0000 000000
2018-09-15 06:03:23,0.06,1.35,0.00,15.95,20.26,22.76,14.38,47.83,1017.53,2054.86,2813.00,2631.99,3034.03,600.26,611.38,51.11,0000 0000 0000 0000 000000
2018-09-15 06:08:24,-0.01,1.35,0.00,15.90,20.20,22.75,14.33,47.82,1017.37,2054.98,2813.16,2632.02,3034.52,600.15,611.06,51.16,0000 0000 0000 0000 000000
2018-09-15 06:13:25,-0.04,1.35,0.00,15.86,20.15,22.69,14.29,47.94,1017.18,2054.99,2813.81,2632.61,3034.97,600.11,611.09,51.21,0000 0000 0000 0000 000000
2018-09-15 06:18:26,0.01,1.35,0.00,15.83,20.09,22.65,14.32,47.85,1017.15,2055.12,2813.97,2632.97,3035.02,600.08,611.14,51.26,0000 0000 0000 0000 000000
2018-09-15 06:23:28,0.05,1.35,0.00,15.78,20.03,22.63,14.38,47.84,1017.12,2055.63,2813.99,2632.99,3035.20,600.06,611.17,51.31,0000 0000 0000 0000 000000
2018-09-15 06:28:29,0.01,1.35,0.00,15.75,19.97,22.56,14.30,47.74,1017.12,2055.98,2813.99,2633.04,3035.88,600.00,611.29,51.36,0000 0000 0000 0000 000000
2018-09-15 06:33:30,-0.02,1.35,0.00,15.71,19.92,22.50,14.31,47.74,1017.11,2055.99,2814.12,2633.39,3035.97,600.07,611.52,51.41,0000 0000 0000 0000 000000
2018-09-15 06:38:31,-0.02,1.35,0.00,15.67,19.86,22.44,14.31,47.86,1017.13,2056.01,2814.74,2633.96,3036.01,599.71,611.17,51.47,0000 0000 0000 0000 000000
2018-09-15 06:43:32,0.05,1.35,0.00,15.63,19.81,22.40,14.38,47.85,1017.12,2056.50,2814.98,2634.01,3036.38,600.20,611.84,51.52,0000 0000 0000 0000 000000
2018-09-15 06:48:33,0.00,1.35,0.00,15.59,19.76,22.38,14.35,47.91,1017.11,2056.91,2814.99,2634.13,3036.91,599.77,611.47,51.57,0000 0000 0000 0000 000000
2018-09-15 06:53:35,-0.02,1.35,0.00,15.55,19.71,22.39,14.43,47.96,1017.11,2056.99,2815.01,2634.80,3036.99,600.41,612.09,51.62,0000 0000 0000 0000 000000
2018-09-15 06:58:36,-0.01,1.35,0.00,15.51,19.65,22.34,14.33,48.02,1017.11,2057.00,2815.33,2634.99,3037.06,599.51,611.31,51.67,0000 0000 0000 0000 000000
2018-09-15 07:03:37,-0.02,1.35,0.00,15.46,19.60,22.27,14.37,47.92,1017.11,2057.03,2815.90,2635.02,3037.67,599.91,611.76,51.72,0000 0000 0000 0000 000000
2018-09-15 07:08:38,0.01,1.35,0.00,15.43,19.55,22.25,14.43,47.83,1017.11,2057.24,2815.99,2635.31,3037.98,600.04,612.07,51.77,0000 0000 0000 0000 000000
2018-09-15 07:13:40,0.04,1.35,0.00,15.41,19.50,22.16,14.32,47.94,1017.11,2057.81,2815.99,2635.86,3038.00,599.67,611.69,51.82,0000 0000 0000 0000 000000
2018-09-15 07:18:41,0.00,1.35,0.00,15.38,19.45,22.10,14.36,47.95,1017.11,2057.97,2816.01,2635.99,3038.13,600.08,612.19,51.87,0000 0000 0000 0000 000000
2018-09-15 07:23:42,-0.02,1.35,0.00,15.34,19.40,22.14,14.41,47.99,1017.11,2057.99,2816.19,2636.02,3038.75,600.11,612.28,51.92,0000 0000 0000 0000 000000
2018-09-15 07:28:43,-0.03,1.35,0.00,15.30,19.36,22.10,14.33,47.92,1017.11,2058.02,2816.92,2636.44,3039.01,599.95,612.28,51.97,0000 0000 0000 0000 000000
2018-09-15 07:33:45,-0.00,1.35,0.00,15.25,19.31,22.02,14.37,47.89,1017.11,2058.21,2816.99,2636.91,3039.22,600.00,612.41,52.02,0000 0000 0000 0000 000000
2018-09-15 07:38:47,0.06,1.35,0.00,15.19,19.26,21.96,14.29,47.79,1017.11,2058.86,2817.00,2636.99,3039.88,599.73,612.19,52.07,0000 0000 0000 0000 000000
2018-09-15 07:43:48,0.00,1.35,0.00,15.15,19.21,21.98,14.42,47.90,1017.11,2058.99,2817.02,2637.00,3039.99,600.27,612.71,52.12,0000 0000 0000 0000 000000
2018-09-15 07:48:50,-0.01,1.35,0.00,15.11,19.17,21.88,14.32,47.83,1017.11,2058.99,2817.07,2637.20,3039.99,599.90,612.47,52.17,0000 0000 0000 0000 000000
2018-09-15 07:53:51,-0.01,1.35,0.00,15.09,19.12,21.88,14.35,47.83,1017.11,2059.03,2817.08,2637.73,3040.03,599.85,612.49,52.22,0000 0000 0000 0000 000000
2018-09-15 07:58:53,0.02,1.35,0.00,15.08,19.08,21.85,14.40,47.84,1017.11,2059.33,2817.64,2637.96,3040.29,600.07,612.81,52.27,0000 0000 0000 0000 000000
2018-09-15 08:03:54,0.02,1.35,0.00,15.06,19.03,21.80,14.31,47.83,1017.11,2059.87,2817.98,2637.99,3040.91,599.98,612.73,52.33,0000 0000 0000 0000 000000
2018-09-15 08:08:56,0.00,1.35,0.00,15.03,18.99,21.81,14.38,47.77,1017.11,2059.98,2817.99,2638.01,3040.99,599.96,612.71,52.38,0000 0000 0000 0000 000000
2018-09-15 08:13:57,-0.00,1.35,0.00,14.99,18.95,21.77,14.38,47.74,1017.11,2059.99,2818.02,2638.14,3041.01,599.86,612.60,52.43,0000 0000 0000 0000 000000
2018-09-15 08:18:59,-0.03,1.35,0.00,14.96,18.91,21.75,14.34,47.83,1017.10,2060.00,2818.13,2638.76,3041.14,600.08,613.04,52.48,0000 0000 0000 0000 000000
2018-09-15 08:24:00,-0.01,1.35,0.00,14.94,18.87,21.77,14.33,47.70,1017.10,2060.03,2818.36,2638.98,3041.69,599.64,612.72,52.53,0000 0000 0000 0000 000000
2018-09-15 08:29:01,0.01,1.35,0.00,14.96,18.83,21.86,14.43,47.82,1017.09,2060.13,2818.71,2638.99,3041.95,600.24,613.06,52.58,0000 0000 0000 0000 000000
2018-09-15 08:34:03,0.07,1.35,0.00,14.96,18.80,21.86,14.33,47.78,1017.06,2060.63,2818.61,2638.93,3041.84,599.82,612.87,52.63,0000 0000 0000 0000 000000
2018-09-15 08:39:04,0.14,1.36,0.00,14.97,18.77,21.86,14.38,47.76,1017.03,2060.96,2816.73,2637.75,3040.57,600.09,613.09,52.68,0000 0000 0000 0000 000000
2018-09-15 08:44:05,0.03,1.36,0.00,14.99,18.73,21.88,14.36,47.78,1017.02,2060.98,2815.14,2637.01,3039.91,599.98,612.85,52.73,0000 0000 0000 0000 000000
2018-09-15 08:49:06,0.00,1.36,0.00,15.00,18.71,21.87,14.42,47.77,1017.06,2060.99,2815.00,2637.00,3039.83,600.29,613.12,52.78,0000 0000 0000 0000 000000
2018-09-15 08:54:07,0.00,1.36,0.00,14.99,18.68,21.87,14.37,47.71,1017.00,2060.99,2815.00,2637.00,3039.93,600.09,612.85,52.83,0000 0000 0000 0000 000000
2018-09-15 08:59:08,0.02,1.36,0.00,14.97,18.66,21.86,14.43,47.84,1017.01,2061.01,2814.63,2637.00,3039.69,600.20,613.35,52.88,0000 0000 0000 0000 000000
2018-09-15 09:04:10,0.02,1.37,0.00,14.94,18.63,21.81,14.33,47.78,1017.07,2061.03,2814.07,2636.98,3039.14,599.92,612.90,52.93,0000 0000 0000 0000 000000
2018-09-15 09:09:11,0.00,1.37,0.00,14.89,18.61,21.74,14.37,47.77,1017.05,2061.06,2814.00,2636.98,3039.04,600.17,613.22,52.98,0000 0000 0000 0000 000000
2018-09-15 09:14:12,0.02,1.37,0.00,14.85,18.59,21.69,14.40,47.67,1017.02,2061.25,2813.88,2636.97,3039.07,599.92,613.23,53.03,0000 0000 0000 0000 000000
2018-09-15 09:19:14,0.07,1.37,0.00,14.82,18.57,21.68,14.35,47.59,1016.95,2061.80,2813.06,2636.75,3039.00,599.84,612.75,53.08,0000 0000 0000 0000 000000
2018-09-15 09:24:15,0.08,1.37,0.00,14.83,18.54,21.69,14.39,47.63,1016.84,2061.97,2811.89,2636.09,3038.32,600.29,613.29,53.13,0000 0000 0000 0000 000000
2018-09-15 09:29:17,0.03,1.38,0.00,14.84,18.52,21.71,14.44,47.57,1016.73,2061.98,2810.66,2635.73,3037.90,600.15,613.21,53.18,0000 0000 0000 0000 000000
2018-09-15 09:34:18,0.03,1.38,0.00,14.86,18.50,21.69,14.37,47.67,1016.67,2061.99,2810.03,2635.18,3037.44,600.12,612.98,53.23,0000 0000 0000 0000 000000
2018-09-15 09:39:19,-0.01,1.38,0.00,14.88,18.49,21.70,14.35,47.62,1016.66,2061.99,2810.00,2635.24,3037.51,599.94,612.87,53.28,0000 0000 0000 0000 000000
2018-09-15 09:44:20,-0.01,1.38,0.00,14.90,18.47,21.67,14.42,47.70,1016.64,2061.99,2810.01,2635.55,3037.79,600.11,612.95,53.34,0000 0000 0000 0000 000000
2018-09-15 09:49:21,0.00,1.38,0.00,14.97,18.46,21.66,14.40,47.65,1016.66,2062.00,2810.00,2635.50,3037.79,600.06,612.90,53.39,0000 0000 0000 0000 000000
2018-09-15 09:54:22,0.01,1.38,0.00,15.00,18.44,21.68,14.26,47.51,1016.62,2062.01,2809.98,2635.31,3037.59,600.09,612.65,53.44,0000 0000 0000 0000 000000
2018-09-15 09:59:23,0.04,1.38,0.00,15.00,18.43,21.69,14.28,47.63,1016.62,2062.05,2809.12,2635.02,3037.04,599.87,612.27,53.49,0000 0000 0000 0000 000000
2018-09-15 10:04:25,0.02,1.38,0.00,14.98,18.42,21.65,14.38,47.60,1016.63,2062.24,2809.19,2635.04,3037.08,600.07,612.59,53.54,0000 0000 0000 0000 000000
2018-09-15 10:09:26,0.04,1.38,0.00,14.97,18.39,21.64,14.43,47.75,1016.63,2062.72,2809.16,2635.15,3037.25,600.30,612.94,53.59,0000 0000 0000 0000 000000
2018-09-15 10:14:28,-0.02,1.38,0.00,14.95,18.37,21.63,14.37,47.72,1016.63,2062.95,2809.81,2635.64,3037.85,599.70,612.53,53.64,0000 0000 0000 0000 000000
2018-09-15 10:19:29,-0.01,1.38,0.00,14.96,18.34,21.58,14.37,47.58,1016.62,2062.98,2809.98,2635.95,3037.98,600.09,612.65,53.69,0000 0000 0000 0000 000000
2018-09-15 10:24:31,0.00,1.38,0.00,14.96,18.32,21.53,14.33,47.72,1016.62,2062.99,2809.99,2635.99,3037.99,599.73,612.40,53.74,0000 0000 0000 0000 000000
2018-09-15 10:29:32,0.00,1.38,0.00,14.97,18.29,21.51,14.30,47.72,1016.62,2062.99,2810.01,2635.99,3038.01,599.99,612.68,53.79,0000 0000 0000 0000 000000
2018-09-15 10:34:33,0.00,1.38,0.00,15.02,18.27,21.45,14.30,47.63,1016.62,2062.99,2810.01,2635.99,3038.03,599.86,612.35,53.84,0000 0000 0000 0000 000000
2018-09-15 10:39:35,0.00,1.38,0.00,15.06,18.24,21.40,10.11,34.28,1016.61,2063.00,2810.05,2636.01,3038.07,432.00,440.91,53.88,0000 0000 0000 0000 000019
2018-09-15 10:44:36,0.00,0.32,0.00,14.96,18.19,21.34,11.47,23.35,1016.55,2064.19,3447.52,2978.21,3413.01,503.37,514.76,0.00,0000 0000 0000 0000 000000
2018-09-15 10:49:37,0.01,0.01,0.00,14.92,18.09,21.27,14.05,27.40,1016.34,2064.24,3627.25,3069.33,3513.73,600.40,613.01,0.05,0000 0000 0000 0000 000000
2018-09-15 10:54:38,0.07,0.03,0.00,15.01,18.06,21.18,14.07,27.51,1016.26,2064.51,3620.78,3063.09,3507.20,600.26,612.61,0.10,0000 0000 0000 0000 000000
2018-09-15 10:59:40,0.10,0.04,0.00,15.16,18.04,20.94,14.00,27.49,1016.22,2064.72,3617.70,3060.03,3504.05,599.98,612.36,0.15,0000 0000 0000 0000 000000
2018-09-15 11:04:41,0.11,0.05,0.00,15.29,18.04,20.88,13.90,27.51,1016.18,2064.80,3615.70,3058.45,3502.32,599.88,611.59,0.20,0000 0000 0000 0000 000000
2018-09-15 11:09:42,0.11,0.05,0.00,15.40,18.04,20.86,13.97,27.57,1016.17,2064.85,3613.74,3056.71,3500.37,599.95,611.40,0.25,0000 0000 0000 0000 000000
2018-09-15 11:14:43,0.12,0.06,0.00,15.51,18.04,20.84,13.98,27.59,1016.16,2064.90,3611.64,3054.66,3497.93,600.21,611.40,0.30,0000 0000 0000 0000 000000
2018-09-15 11:19:45,0.08,0.06,0.00,15.61,18.07,20.87,13.90,27.50,1016.15,2064.82,3610.09,3052.88,3496.28,600.04,611.11,0.35,0000 0000 0000 0000 000000
2018-09-15 11:24:46,0.05,0.06,0.00,15.70,18.09,20.91,13.88,27.57,1016.14,2064.58,3608.76,3051.63,3494.74,599.79,610.66,0.40,0000 0000 0000 0000 000000
2018-09-15 11:29:47,0.03,0.07,0.00,15.78,18.12,20.96,13.88,27.50,1016.14,2064.12,3607.52,3050.37,3493.37,599.77,610.41,0.45,0000 0000 0000 0000 000000
2018-09-15 11:34:49,0.05,0.07,0.00,15.83,18.15,21.02,13.81,27.49,1016.13,2064.04,3606.43,3049.52,3492.45,599.80,610.43,0.50,0000 0000 0000 0000 000000
2018-09-15 11:39:50,0.04,0.07,0.00,15.89,18.18,21.06,13.93,27.57,1016.13,2064.04,3605.64,3048.69,3491.63,600.09,610.49,0.55,0000 0000 0000 0000 000000
2018-09-15 11:44:51,0.06,0.07,0.00,15.96,18.22,21.13,13.90,27.52,1016.13,2064.00,3604.19,3047.37,3490.16,599.44,609.80,0.60,0000 0000 0000 0000 000000
2018-09-15 11:49:52,0.04,0.08,0.00,16.00,18.26,21.20,13.89,27.52,1016.13,2063.99,3603.33,3046.62,3489.22,599.68,609.85,0.65,0000 0000 0000 0000 000000
2018-09-15 11:54:53,0.06,0.08,0.00,16.06,18.31,21.23,13.97,27.72,1016.13,2063.98,3602.20,3045.33,3488.01,600.15,610.21,0.70,0000 0000 0000 0000 000000
2018-09-15 11:59:55,0.02,0.08,0.00,16.10,18.35,21.32,13.98,27.68,1016.12,2063.95,3601.16,3044.88,3487.04,600.55,610.37,0.75,0000 0000 0000 0000 000000
2018-09-15 12:04:56,0.02,0.08,0.00,16.13,18.39,21.35,13.89,27.64,1016.13,2063.64,3600.36,3044.07,3486.18,599.87,609.77,0.80,0000 0000 0000 0000 000000
2018-09-15 12:09:57,-0.02,0.08,0.00,16.17,18.44,21.37,13.90,27.68,1016.13,2063.13,3599.81,3043.42,3485.70,599.74,609.55,0.85,0000 0000 0000 0000 000000
2018-09-15 12:14:59,0.19,0.09,0.00,16.21,18.48,21.42,13.99,27.73,1016.13,2063.05,3596.86,3040.81,3482.27,600.36,610.16,0.90,0000 0000 0000 0000 000000
2018-09-15 12:20:00,0.06,0.09,0.00,16.24,18.53,21.46,13.94,27.77,1016.14,2063.00,3595.57,3039.23,3480.72,600.13,609.76,0.95,0000 0000 0000 0000 000000
2018-09-15 12:25:01,0.03,0.10,0.00,16.27,18.56,21.53,13.91,27.61,1016.13,2063.00,3594.92,3038.48,3479.98,599.99,609.45,1.00,0000 0000 0000 0000 000000
2018-09-15 12:30:02,0.03,0.10,0.00,16.29,18.60,21.55,13.93,27.71,1016.14,2062.97,3594.15,3037.84,3479.29,600.13,609.77,1.05,0000 0000 0000 0000 000000
2018-09-15 12:35:04,-0.01,0.10,0.00,16.30,18.65,21.59,13.89,27.70,1016.14,2062.51,3593.41,3037.05,3478.39,599.91,609.34,1.10,0000 0000 0000 0000 000000
2018-09-15 12:40:05,0.01,0.10,0.00,16.32,18.68,21.62,14.01,27.82,1016.13,2062.14,3592.91,3036.47,3477.84,600.21,609.71,1.15,0000 0000 0000 0000 000000
2018-09-15 12:45:06,0.01,0.10,0.00,16.35,18.73,21.68,13.88,27.67,1016.13,2062.02,3592.17,3036.03,3477.15,599.56,609.07,1.20,0000 0000 0000 0000 000000
2018-09-15 12:50:07,0.01,0.10,0.00,16.37,18.76,21.69,13.85,27.72,1016.13,2062.00,3591.93,3035.85,3476.92,599.72,609.13,1.25,0000 0000 0000 0000 000000
2018-09-15 12:55:09,0.04,0.10,0.00,16.39,18.80,21.73,13.83,27.67,1016.13,2062.00,3591.16,3035.10,3476.16,599.96,609.27,1.30,0000 0000 0000 0000 000000